{"data":{"norad_id":65256,"epoch":"2026-09-20T14:14:03.559200Z","epoch_age_seconds":109457,"freshness":"FRESH","line1":"1 65256U 25179X   26263.59309675  .00010473  00000+0  32618-3 0  9998","line2":"2 65256  97.2836 302.8661 0000456 325.3743  34.7470 15.33455063 61051","mean_motion":15.33455063,"eccentricity":4.56e-5,"inclination_deg":97.2836,"raan_deg":302.8661,"arg_perigee_deg":325.3743,"mean_anomaly_deg":34.747,"bstar":0.00032618,"rev_number":6105,"period_min":93.905588415668,"perigee_km":465.2011637831,"apogee_km":465.82530468447,"semimajor_km":6843.6502342338,"source":"CELESTRAK","updated_at":"2026-09-21T09:00:35.562244Z"}}